Home   Weather   Molde   Past weeks

Flag for Norway Past Weather in Molde, Norway — Yesterday and Last 2 Weeks

Now
36 °F

Sprinkles. Partly cloudy.


Feels Like: 27 °F
Forecast: 30 / 39 °F
Wind: 13 mph from West

Location: Aro

Current Time: Feb 21, 2018 at 9:46:57 pm

Latest Report: Feb 21, 2018 at 8:50 pm


Visibility: N/A

Pressure: 30.33 "Hg

Humidity: 93%

Dew Point: 34 °F

Location of MoldeLocation

Past Weather in Molde — Graph

°F

Molde Temperature Yesterday

Maximum temperature yesterday: 37 °F (at 1:20 pm)
Minimum temperature yesterday: 23 °F (at 5:50 am)
Average temperature yesterday: 30 °F

High & Low Weather Summary for the Past Weeks

 TemperatureHumidityPressure
High45 °F (Feb 9, 11:20 am)100% (Feb 7, 9:20 am)30.33 "Hg (Feb 7, 9:20 am)
Low23 °F (Feb 13, 8:50 am)34% (Feb 15, 1:50 am)29.27 "Hg (Feb 11, 6:50 am)
Average35 °F68%29.75 "Hg
* Reported Feb 6 8:20 pm — Feb 21 8:20 pm, Molde. Weather by CustomWeather, © 2018

Note: Actual official high and low records may vary slightly from our data, if they occured in-between our weather recording intervals... More about our weather records

Advertising

Molde Weather History for the Previous 24 Hours

Scroll right to see more
 ConditionsComfort  
Time TempWeatherWind HumidityBarometerVisibility
8:20 pm
Wed, Feb 21
36 °FLight rain. Partly cloudy.9 mph93%30.33 "HgN/A
7:50 pm36 °FRain. Passing clouds.7 mph87%30.30 "HgN/A
7:20 pm36 °FSprinkles. Partly cloudy.9 mph93%30.30 "Hg6 mi
6:50 pm37 °FSprinkles. Partly cloudy.14 mph87%30.27 "HgN/A
6:20 pm37 °FSprinkles. Partly cloudy.18 mph87%30.27 "HgN/A
5:50 pm37 °FSprinkles. Partly cloudy.10 mph87%30.27 "HgN/A
5:20 pm37 °FSprinkles. Broken clouds.13 mph87%30.27 "HgN/A
4:50 pm37 °FSnow flurries. Broken clouds.12 mph87%30.27 "HgN/A
4:20 pm37 °FSprinkles. Broken clouds.10 mph87%30.27 "HgN/A
3:50 pm37 °FSprinkles. Partly sunny.10 mph81%30.24 "HgN/A
3:20 pm37 °FSprinkles. Partly sunny.14 mph81%30.27 "HgN/A
2:20 pm37 °FSprinkles. Partly sunny.8 mph81%30.24 "HgN/A
1:50 pm41 °FSprinkles. Broken clouds.10 mph70%30.24 "HgN/A
1:20 pm43 °FScattered clouds.13 mph71%30.24 "HgN/A
12:50 pm37 °FScattered clouds.1 mph87%30.24 "HgN/A
12:20 pm37 °FScattered clouds.2 mph87%30.24 "HgN/A
11:50 am36 °FSnow flurries. Broken clouds.6 mph87%30.24 "HgN/A
11:20 am36 °FScattered clouds.5 mph87%30.24 "HgN/A
10:50 am34 °FBroken clouds.6 mph93%30.24 "HgN/A
10:20 am34 °FSprinkles. Broken clouds.6 mph93%30.21 "HgN/A
9:50 am34 °FSprinkles. Broken clouds.5 mph93%30.24 "HgN/A
9:20 am34 °FSprinkles. Broken clouds.3 mph93%30.21 "HgN/A
8:20 am34 °FSnow flurries. Broken clouds.2 mph93%30.21 "HgN/A
7:50 am32 °FSnow flurries. Dense fog.5 mph100%30.21 "Hg1 mi
7:20 am32 °FSnow flurries. Partly cloudy.5 mph100%30.18 "Hg4 mi
6:50 am32 °FSnow flurries. Overcast.6 mph100%30.18 "HgN/A
6:20 am32 °FLight snow. Mostly cloudy.5 mph93%30.18 "HgN/A
5:50 am32 °FLight snow. Dense fog.5 mph93%30.18 "Hg1 mi
5:20 am32 °FLight snow. Dense fog.6 mph93%30.18 "Hg2 mi
4:50 am32 °FLight snow. Mostly cloudy.3 mph93%30.18 "Hg1 mi
4:20 am32 °FSnow. Dense fog.1 mph93%30.18 "Hg1 mi
3:50 am32 °FLight snow. Dense fog.2 mph93%30.18 "Hg1 mi
3:20 am30 °FLight snow. Low clouds.5 mph100%30.18 "Hg2 mi
2:50 am30 °FLight snow. Mostly cloudy.7 mph93%30.18 "Hg2 mi
2:20 am30 °FLight snow. Ice fog.6 mph100%30.18 "Hg3 mi
1:50 am30 °FIcy mix. Overcast.5 mph100%30.18 "Hg3 mi
1:20 am30 °FLight snow. Overcast.7 mph100%30.18 "Hg2 mi
12:50 am30 °FSnow. Ice fog.7 mph93%30.18 "Hg1 mi
12:20 am30 °FSnow. Ice fog.6 mph93%30.18 "Hg1 mi
11:50 pm
Tue, Feb 20
30 °FLight snow. Partly cloudy.7 mph93%30.21 "Hg1 mi
10:50 pm32 °FSprinkles. Passing clouds.7 mph64%30.21 "HgN/A
10:20 pm32 °FScattered showers. Passing clouds.7 mph64%30.21 "HgN/A
9:50 pm32 °FPassing clouds.7 mph64%30.21 "HgN/A
9:20 pm32 °FPassing clouds.8 mph60%30.21 "HgN/A
Weather by CustomWeather, © 2018

See weather overview